Tracking 22287 objects as of 27-Jan-2021
HD Live streaming from Space Station
objects crossing your sky now

STARLINK-1364

Track STARLINK-1364 now!
10-day predictions
STARLINK-1364 is classified as:


NORAD ID: 45589
Int'l Code: 2020-025BL
Perigee: 554.1 km
Apogee: 556.3 km
Inclination: 53.0 °
Period: 95.6 minutes
Semi major axis: 6926 km
RCS: Unknown
Launch date: April 22, 2020
Source: United States (US)
Launch site: AIR FORCE EASTERN TEST RANGE (AFETR)
aabbcc
Your satellite tracking list
Your tracking list is empty




NASA's NSSDC Master Catalog

Two Line Element Set (TLE):
1 45589U 20025BL  21027.15653156  .00047355  00000-0  32000-2 0  9995
2 45589  52.9986 180.2866 0001592  93.0631 267.0539 15.06128074 43421
Source of the keplerian elements: AFSPC